This is the latest recevied weather packets stored in our database for station/object OH2TH. If no packets are shown the sender has not sent any weather packets the latest 10 day(s).
| Time | Temp. | Humidity | Pressure | Rain* | Wind** | Luminosity | Snow |
|---|---|---|---|---|---|---|---|
| 1778230802 | 13.89° C | 28% | 102 hPa | - | - | - | - |
| 1778229902 | 13.89° C | 29% | 102 hPa | - | - | - | - |
| 1778229002 | 12.78° C | 29% | 102 hPa | - | - | - | - |
| 1778228102 | 12.78° C | 30% | 102 hPa | - | - | - | - |
| 1778227202 | 12.78° C | 29% | 102 hPa | - | - | - | - |
| 1778226302 | 12.78° C | 31% | 102 hPa | - | - | - | - |
| 1778225402 | 12.22° C | 32% | 102 hPa | - | - | - | - |
| 1778224501 | 12.22° C | 33% | 102 hPa | - | - | - | - |
| 1778223601 | 11.11° C | 36% | 102 hPa | - | - | - | - |
| 1778222701 | 10° C | 36% | 102 hPa | - | - | - | - |
| 1778221801 | 10° C | 38% | 102 hPa | - | - | - | - |
| 1778220900 | 8.89° C | 42% | 102 hPa | - | - | - | - |
| 1778220000 | 8.89° C | 43% | 102 hPa | - | - | - | - |
| 1778219105 | 7.78° C | 44% | 102 hPa | - | - | - | - |
| 1778218205 | 7.22° C | 50% | 102 hPa | - | - | - | - |
| 1778217305 | 6.11° C | 52% | 102 hPa | - | - | - | - |
| 1778216405 | 6.11° C | 56% | 102 hPa | - | - | - | - |
| 1778215504 | 5° C | 58% | 102 hPa | - | - | - | - |
| 1778214604 | 2.78° C | 65% | 102 hPa | - | - | - | - |
| 1778213703 | 2.22° C | 69% | 102 hPa | - | - | - | - |
| 1778212803 | 1.11° C | 70% | 102 hPa | - | - | - | - |
| 1778211903 | 1.11° C | 68% | 102 hPa | - | - | - | - |
| 1778211001 | 1.11° C | 69% | 102 hPa | - | - | - | - |
| 1778210101 | 1.11° C | 69% | 102 hPa | - | - | - | - |
| 1778209205 | 1.11° C | 67% | 102 hPa | - | - | - | - |
* Rain since midnight (hover to see other rain measurements)
** Current wind speed in m/s (hover to see current wind gust speed)